When you browse on this site, cookies collect data to enhance your experience and personalize the content and advertising you see.
Visit our Privacy Policy to learn more. By continuing to use the site, you agree to this use of cookies and data.
  • In United Kingdom
  • List of Countries
  • For 7 days
  • Water Temperature
  • Satellite Maps
  • Weather Map
  • Weather Widgets
  • user-avatar
    Login

    Hourly Weather Shusha

    Today, 24 July, Wednesday

    Time Temperature Precipitation Wind Pressure Humidity
    00:00 +21°C° 0 mm 1 mps 656 mmHg 68%
    01:00 +21°C° 0 mm 1 mps 656 mmHg 67%
    02:00 +20°C° 0 mm 1 mps 656 mmHg 66%
    03:00 +20°C° 0 mm 1 mps 656 mmHg 64%
    04:00 +21°C° 0 mm 1 mps 656 mmHg 65%
    05:00 +21°C° 0 mm 1 mps 656 mmHg 65%
    06:00 +21°C° 0 mm 1 mps 656 mmHg 65%
    07:00 +22°C° 0 mm 1 mps 657 mmHg 59%
    08:00 +24°C° 0 mm 2 mps 657 mmHg 53%
    09:00 +25°C° 0 mm 2 mps 657 mmHg 47%
    10:00 +26°C° 0 mm 2 mps 657 mmHg 45%
    11:00 +28°C° 0 mm 2 mps 657 mmHg 42%
    12:00 +29°C° 0 mm 3 mps 657 mmHg 39%
    13:00 +29°C° 0 mm 3 mps 657 mmHg 39%
    14:00 +30°C° 0 mm 3 mps 656 mmHg 38%
    15:00 +31°C° 0 mm 3 mps 656 mmHg 37%
    16:00 +30°C° 0 mm 2 mps 656 mmHg 40%
    17:00 +29°C° 0 mm 2 mps 656 mmHg 42%
    18:00 +28°C° 0 mm 2 mps 656 mmHg 45%
    19:00 +26°C° 0 mm 1 mps 656 mmHg 50%
    20:00 +25°C° 0 mm 1 mps 656 mmHg 55%
    21:00 +23°C° 0 mm 1 mps 656 mmHg 60%
    22:00 +22°C° 0 mm 1 mps 656 mmHg 60%
    23:00 +22°C° 0 mm 1 mps 656 mmHg 61%

    Tomorrow, 25 July, Thursday

    Time Temperature Precipitation Wind Pressure Humidity
    00:00 +22°C° 0 mm 1 mps 656 mmHg 61%
    01:00 +21°C° 0 mm 1 mps 656 mmHg 60%
    02:00 +21°C° 0 mm 1 mps 656 mmHg 60%
    03:00 +21°C° 0 mm 1 mps 656 mmHg 59%
    04:00 +21°C° 0 mm 1 mps 656 mmHg 59%
    05:00 +22°C° 0 mm 1 mps 656 mmHg 58%
    06:00 +22°C° 0 mm 1 mps 657 mmHg 58%
    07:00 +24°C° 0 mm 1 mps 657 mmHg 54%
    08:00 +26°C° 0 mm 1 mps 657 mmHg 50%
    09:00 +27°C° 0 mm 2 mps 658 mmHg 46%
    10:00 +29°C° 0 mm 2 mps 658 mmHg 42%
    11:00 +30°C° 0 mm 2 mps 658 mmHg 39%
    12:00 +31°C° 0 mm 3 mps 658 mmHg 36%
    13:00 +33°C° 0 mm 3 mps 657 mmHg 35%
    14:00 +33°C° 0 mm 3 mps 657 mmHg 34%
    15:00 +34°C° 0 mm 3 mps 657 mmHg 34%
    16:00 +33°C° 0 mm 3 mps 657 mmHg 38%
    17:00 +31°C° 0 mm 2 mps 656 mmHg 42%
    18:00 +30°C° 0 mm 2 mps 656 mmHg 46%
    19:00 +28°C° 0 mm 2 mps 656 mmHg 50%
    20:00 +26°C° 0 mm 1 mps 656 mmHg 54%
    21:00 +25°C° 0 mm 1 mps 656 mmHg 57%
    22:00 +24°C° 0 mm 1 mps 656 mmHg 60%
    23:00 +23°C° 0 mm 2 mps 656 mmHg 62%

    Day after tomorrow, 26 July, Friday

    Time Temperature Precipitation Wind Pressure Humidity
    00:00 +21°C° 0 mm 2 mps 656 mmHg 64%
    01:00 +20°C° 0 mm 2 mps 656 mmHg 65%
    02:00 +20°C° 0 mm 2 mps 656 mmHg 66%
    03:00 +19°C° 0 mm 2 mps 656 mmHg 68%
    04:00 +21°C° 0 mm 1 mps 657 mmHg 66%
    05:00 +21°C° 0 mm 1 mps 657 mmHg 65%
    06:00 +22°C° 0 mm 1 mps 658 mmHg 64%
    07:00 +23°C° 0 mm 1 mps 658 mmHg 59%
    08:00 +25°C° 0 mm 2 mps 658 mmHg 53%
    09:00 +26°C° 0 mm 3 mps 659 mmHg 48%
    10:00 +27°C° 0 mm 3 mps 659 mmHg 46%
    11:00 +28°C° 0 mm 3 mps 659 mmHg 44%
    12:00 +29°C° 0 mm 3 mps 658 mmHg 41%
    13:00 +29°C° 0 mm 3 mps 658 mmHg 40%
    14:00 +29°C° 0 mm 3 mps 658 mmHg 40%
    15:00 +30°C° 0 mm 3 mps 658 mmHg 39%
    16:00 +28°C° 0 mm 3 mps 657 mmHg 43%
    17:00 +27°C° 0 mm 4 mps 657 mmHg 48%
    18:00 +26°C° 0 mm 4 mps 657 mmHg 52%
    19:00 +24°C° 0 mm 3 mps 657 mmHg 59%
    20:00 +21°C° 0 mm 2 mps 657 mmHg 66%
    21:00 +20°C° 0 mm 1 mps 657 mmHg 73%
    22:00 +20°C° 0 mm 1 mps 657 mmHg 75%
    23:00 +20°C° 0 mm 1 mps 657 mmHg 76%

    27 July, Saturday

    Time Temperature Precipitation Wind Pressure Humidity
    00:00 +19°C° 0 mm 1 mps 657 mmHg 77%
    01:00 +19°C° 0 mm 1 mps 657 mmHg 77%
    02:00 +19°C° 0 mm 1 mps 657 mmHg 77%
    03:00 +18°C° 0 mm 1 mps 657 mmHg 77%
    04:00 +19°C° 0 mm 1 mps 657 mmHg 74%
    05:00 +19°C° 0 mm 1 mps 657 mmHg 70%
    06:00 +20°C° 0 mm 1 mps 657 mmHg 67%
    07:00 +20°C° 0 mm 2 mps 657 mmHg 61%
    08:00 +21°C° 0 mm 2 mps 657 mmHg 55%
    09:00 +24°C° 0 mm 3 mps 658 mmHg 49%
    10:00 +25°C° 0 mm 3 mps 657 mmHg 46%
    11:00 +26°C° 0 mm 3 mps 657 mmHg 44%
    12:00 +27°C° 0 mm 3 mps 657 mmHg 41%
    13:00 +28°C° 0 mm 3 mps 657 mmHg 40%
    14:00 +28°C° 0 mm 3 mps 656 mmHg 38%
    15:00 +29°C° 0 mm 4 mps 656 mmHg 37%
    16:00 +28°C° 0 mm 4 mps 656 mmHg 39%
    17:00 +27°C° 0 mm 3 mps 655 mmHg 42%
    18:00 +26°C° 0 mm 3 mps 655 mmHg 44%
    19:00 +24°C° 0 mm 3 mps 655 mmHg 50%
    20:00 +21°C° 0 mm 2 mps 655 mmHg 56%
    21:00 +20°C° 0 mm 1 mps 654 mmHg 61%
    22:00 +20°C° 0 mm 1 mps 654 mmHg 62%
    23:00 +20°C° 0 mm 1 mps 654 mmHg 63%

    28 July, Sunday

    Time Temperature Precipitation Wind Pressure Humidity
    00:00 +19°C° 0 mm 1 mps 654 mmHg 64%
    01:00 +19°C° 0 mm 1 mps 654 mmHg 64%
    02:00 +19°C° 0 mm 1 mps 654 mmHg 65%
    03:00 +18°C° 0 mm 1 mps 654 mmHg 65%
    04:00 +19°C° 0 mm 1 mps 654 mmHg 65%
    05:00 +19°C° 0 mm 1 mps 654 mmHg 64%
    06:00 +18°C° 0 mm 0 mps 654 mmHg 63%
    07:00 +21°C° 0 mm 1 mps 655 mmHg 58%
    08:00 +23°C° 0 mm 1 mps 655 mmHg 53%
    09:00 +24°C° 0 mm 2 mps 656 mmHg 47%
    10:00 +25°C° 0 mm 2 mps 655 mmHg 45%
    11:00 +26°C° 0 mm 3 mps 655 mmHg 42%
    12:00 +28°C° 0 mm 3 mps 655 mmHg 40%
    13:00 +28°C° 0 mm 3 mps 655 mmHg 39%
    14:00 +29°C° 0 mm 3 mps 655 mmHg 38%
    15:00 +29°C° 0 mm 3 mps 655 mmHg 37%
    16:00 +28°C° 0 mm 3 mps 654 mmHg 39%
    17:00 +28°C° 0 mm 3 mps 654 mmHg 41%
    18:00 +27°C° 0 mm 3 mps 654 mmHg 43%
    19:00 +25°C° 0 mm 2 mps 654 mmHg 49%
    20:00 +23°C° 0 mm 2 mps 654 mmHg 55%
    21:00 +21°C° 0 mm 1 mps 654 mmHg 62%
    22:00 +20°C° 0 mm 1 mps 654 mmHg 63%
    23:00 +20°C° 0 mm 1 mps 654 mmHg 64%

    29 July, Monday

    Time Temperature Precipitation Wind Pressure Humidity
    00:00 +20°C° 0 mm 1 mps 654 mmHg 65%
    01:00 +19°C° 0 mm 1 mps 654 mmHg 66%
    02:00 +19°C° 0 mm 1 mps 654 mmHg 67%
    03:00 +18°C° 0 mm 1 mps 654 mmHg 69%
    04:00 +19°C° 0 mm 1 mps 655 mmHg 67%
    05:00 +19°C° 0 mm 1 mps 655 mmHg 66%
    06:00 +20°C° 0 mm 1 mps 655 mmHg 64%
    07:00 +21°C° 0 mm 1 mps 656 mmHg 59%
    08:00 +23°C° 0 mm 2 mps 656 mmHg 53%
    09:00 +25°C° 0 mm 2 mps 656 mmHg 47%
    10:00 +26°C° 0 mm 2 mps 656 mmHg 45%
    11:00 +27°C° 0 mm 3 mps 656 mmHg 42%
    12:00 +28°C° 0 mm 3 mps 656 mmHg 39%
    13:00 +29°C° 0 mm 3 mps 656 mmHg 39%
    14:00 +29°C° 0 mm 3 mps 656 mmHg 38%
    15:00 +30°C° 0 mm 4 mps 656 mmHg 38%
    16:00 +29°C° 0 mm 3 mps 655 mmHg 41%
    17:00 +28°C° 0 mm 3 mps 655 mmHg 44%
    18:00 +27°C° 0 mm 3 mps 655 mmHg 47%
    19:00 +25°C° 0 mm 2 mps 655 mmHg 52%
    20:00 +23°C° 0 mm 2 mps 655 mmHg 58%
    21:00 +21°C° 0 mm 1 mps 655 mmHg 63%
    22:00 +21°C° 0 mm 1 mps 655 mmHg 64%
    23:00 +20°C° 0 mm 1 mps 655 mmHg 65%
    Show more